EW5742 Weather Reports


Display with metric or nautical units.
time (UTC)temp
F
wind
direction
speed
MPH
gust
MPH
rain 1hr
in
rain 24hr
in
rain mn
in
humidity
%
barometer
mb
20200526170046 74 335 2.0 7.0 0.00 0.00 0.00 79 1020.5
20200526164647 73 350 3.0 8.0 0.00 0.00 0.00 80 1020.7
20200526163134 72 33 3.0 7.0 0.00 0.00 0.00 81 1020.9
20200526161553 71 344 4.0 8.0 0.00 0.00 0.00 83 1021.0
20200526160036 70 330 1.0 7.0 0.00 0.00 0.00 85 1021.2
20200526154533 69 14 1.0 7.0 0.00 0.00 0.00 86 1021.2
20200526153127 69 41 1.0 4.0 0.00 0.00 0.00 86 1021.2
20200526151534 69 54 0.0 4.0 0.00 0.00 0.00 86 1021.2
20200526150105 69 77 0.0 5.0 0.00 0.00 0.00 87 1021.2
20200526144517 68 33 1.0 7.0 0.00 0.00 0.00 88 1021.1
20200526143015 68 356 2.0 7.0 0.00 0.00 0.00 89 1021.1
20200526141510 67 45 0.0 7.0 0.00 0.00 0.00 90 1021.0
20200526140004 66 36 0.0 5.0 0.00 0.00 0.00 91 1021.1
20200526134514 66 357 0.0 5.0 0.00 0.00 0.00 91 1020.9
20200526133154 66 8 1.0 6.0 0.00 0.00 0.00 91 1021.0
20200526131627 65 47 0.0 8.0 0.00 0.00 0.00 92 1020.8
20200526130152 65 1 0.0 5.0 0.00 0.00 0.00 92 1020.8
20200526124641 65 16 2.0 7.0 0.00 0.00 0.00 92 1020.7
20200526123152 65 48 1.0 5.0 0.00 0.00 0.00 91 1020.6
20200526121722 65 4 0.0 7.0 0.00 0.00 0.00 91 1020.5
20200526120112 65 32 0.0 3.0 0.00 0.00 0.00 91 1020.5
20200526114703 65 25 0.0 3.0 0.00 0.00 0.00 91 1020.4
20200526113213 65 70 0.0 3.0 0.00 0.00 0.00 92 1020.3
20200526111720 64 351 0.0 4.0 0.00 0.00 0.00 92 1020.1
20200526110125 64 334 0.0 6.0 0.00 0.00 0.00 92 1020.0
20200526104716 64 340 0.0 6.0 0.00 0.00 0.00 92 1019.9
20200526103222 64 38 0.0 4.0 0.00 0.00 0.00 92 1019.9
20200526101627 64 30 0.0 2.0 0.00 0.00 0.00 92 1019.8
20200526100100 64 27 0.0 2.0 0.00 0.00 0.00 92 1019.6
20200526094702 64 349 0.0 2.0 0.00 0.00 0.00 92 1019.6
20200526093218 64 24 0.0 1.0 0.00 0.00 0.00 92 1019.5
20200526091621 64 3 0.0 1.0 0.00 0.00 0.00 92 1019.4
20200526090137 64 12 0.0 0.0 0.00 0.00 0.00 91 1019.4
20200526084640 64 25 0.0 1.0 0.00 0.00 0.00 91 1019.4
20200526083221 64 4 0.0 1.0 0.00 0.00 0.00 91 1019.2
20200526081601 63 71 0.0 0.0 0.00 0.00 0.00 91 1019.2
20200526074600 63 58 1.0 6.0 0.00 0.00 0.00 91 1019.3
20200526073151 64 40 0.0 4.0 0.00 0.00 0.00 91 1019.4
20200526071638 64 32 1.0 4.0 0.00 0.00 0.00 91 1019.3
20200526070125 64 72 0.0 5.0 0.00 0.00 0.00 90 1019.5
20200526064705 64 44 0.0 3.0 0.00 0.00 0.00 91 1019.7
20200526063043 64 34 0.0 4.0 0.00 0.00 0.00 90 1019.8
20200526061546 64 156 1.0 7.0 0.00 0.00 0.00 90 1020.0
20200526060100 64 131 1.0 5.0 0.00 0.00 0.00 90 1020.1
20200526054541 64 150 1.0 5.0 0.00 0.00 0.00 90 1020.3
20200526053057 64 24 1.0 5.0 0.00 0.00 0.00 90 1020.4
20200526051551 64 103 0.0 4.0 0.00 0.00 0.00 90 1020.5
20200526050132 64 49 0.0 4.0 0.00 0.00 0.00 90 1020.6
20200526044600 65 97 1.0 8.0 0.00 0.00 0.00 90 1020.7
20200526043059 65 64 1.0 5.0 0.00 0.00 0.00 90 1020.9
20200526041538 65 327 0.0 2.0 0.00 0.00 0.00 90 1021.0
20200526040106 65 30 0.0 5.0 0.00 0.00 0.00 91 1021.0
20200526034529 65 141 0.0 3.0 0.00 0.00 0.00 91 1020.9
20200526033051 65 89 1.0 3.0 0.00 0.00 0.00 91 1020.8
20200526031614 65 107 0.0 3.0 0.00 0.00 0.00 91 1020.8
20200526030101 65 94 0.0 4.0 0.00 0.00 0.00 91 1020.7
20200526024646 65 78 0.0 3.0 0.00 0.00 0.00 91 1020.6
20200526023029 65 54 0.0 5.0 0.00 0.00 0.00 91 1020.5
20200526021607 65 75 0.0 2.0 0.00 0.00 0.00 91 1020.4
20200526020027 65 107 1.0 7.0 0.00 0.00 0.00 90 1020.2
20200526014544 65 34 0.0 5.0 0.00 0.00 0.00 90 1020.2
20200526013026 66 91 0.0 5.0 0.00 0.00 0.00 89 1020.1
20200526011546 66 124 1.0 8.0 0.00 0.00 0.00 88 1020.0
20200526010034 67 95 3.0 8.0 0.00 0.00 0.00 88 1019.8
20200526004526 67 67 1.0 8.0 0.00 0.00 0.00 87 1019.6
20200526003026 68 71 1.0 5.0 0.00 0.00 0.00 86 1019.6
20200526001526 69 110 1.0 7.0 0.00 0.00 0.00 84 1019.5
20200526000027 70 98 0.0 6.0 0.00 0.00 0.00 82 1019.3
20200525234634 72 19 3.0 8.0 0.00 0.00 0.00 79 1019.3
20200525233037 72 68 0.0 2.0 0.00 0.00 0.00 78 1019.2
20200525231549 73 39 0.0 2.0 0.00 0.00 0.00 77 1019.3
20200525230056 74 34 0.0 3.0 0.00 0.00 0.00 75 1019.1
20200525224521 75 79 0.0 3.0 0.00 0.00 0.00 73 1019.0
20200525223035 76 105 0.0 3.0 0.00 0.00 0.00 71 1019.0
20200525221547 76 325 1.0 5.0 0.00 0.00 0.00 70 1019.1
20200525220020 77 34 0.0 6.0 0.00 0.00 0.00 69 1019.2
20200525214536 77 354 2.0 7.0 0.00 0.00 0.00 68 1019.1
20200525213047 77 329 0.0 8.0 0.00 0.00 0.00 66 1019.0
20200525211527 78 338 0.0 4.0 0.00 0.00 0.00 66 1019.2
20200525210018 77 11 1.0 8.0 0.00 0.00 0.00 67 1019.2
20200525204522 77 330 3.0 9.0 0.00 0.00 0.00 67 1019.3
20200525203045 77 25 2.0 7.0 0.00 0.00 0.00 67 1019.3
20200525201516 77 20 1.0 9.0 0.00 0.00 0.00 68 1019.5
20200525200022 77 32 2.0 7.0 0.00 0.00 0.00 67 1019.6
20200525194518 77 72 1.0 8.0 0.00 0.00 0.00 67 1019.8
20200525193020 77 322 0.0 7.0 0.00 0.00 0.00 67 1020.1
20200525191520 78 68 2.0 7.0 0.00 0.00 0.00 65 1020.2
20200525190008 78 342 1.0 7.0 0.00 0.00 0.00 66 1020.5
20200525184507 77 295 2.0 7.0 0.00 0.00 0.00 65 1020.6
20200525183006 77 37 2.0 7.0 0.00 0.00 0.00 68 1020.6
20200525181522 77 108 1.0 9.0 0.00 0.00 0.00 68 1020.8
20200525180008 77 18 1.0 6.0 0.00 0.00 0.00 70 1021.1
20200525174527 75 335 0.0 6.0 0.00 0.00 0.00 72 1021.2
20200525173011 74 116 0.0 6.0 0.00 0.00 0.00 71 1021.3
20200525171506 74 13 1.0 5.0 0.00 0.00 0.00 73 1021.4